Showing default

ERS 15, 2412

Orbit data source: Space-Track

ERS 15, 2412 is a payload satellite owned by USAF SSD (US) in LEO that was launched on Fri, 19 Aug 1966 UTC via an ATLAS SLV-3 AGENA D launch vehicle from the Air Force Western Test Range (AFWTR). Payload-class satellites include a variety of spacecraft equipped with specific instruments for various scientific and technological missions. These include communications satellites like Starlink; space stations such as the ISS; scientific satellites like the Hubble; Earth observation satellites from companies like Planet Labs, Umbra, and HawkEye 360; GPS; miniature CubeSats for education and research; and military/defense satellites.

Loading next visibility...
Identifier
2412, 1966-077C
Orbit
LEO
Country
Flag of USUS
Related business
Manufacturer
TRW
Mission
Spacecraft
Bus & Motor
ORS, Unknown motor
Mass
5 kg wet, 5 kg dry
Launch date (UTC)
1966-08-19 (59 years ago)
Launch vehicle
ATLAS SLV-3 AGENA D
Launch site
Air Force Western Test Range (AFWTR)
Object type
Payload
Rocket body
Debris
Shape & HBR
Unknown
Radar Cross Section
Medium (>0.1 m² and <1 m²)

Expand to show TLE details & history
Last TLE update: 1 day ago

TLE from 1 day ago
0 ERS 15
1 02412U 66077C   25342.25163722  .00000002  00000-0  00000-0 0  9991
2 02412  90.3323 275.0035 0005444 262.7142  97.3090  8.59078319374062
Epoch: 2025-12-08T06:02Z
TLE epoch observation values (Epoch: 2025-12-08T06:02:21.455Z)
Latitude
-0.00007°
Longitude
107.16076°
Altitude
3,695.148 km
Speed
6.291 km/s
True Right ascension
18h 20m 00s
True Declination
0° 00' 00"
Sunlit
Object was in daylight at epoch
Visualization orbit readout
Latitude
Unknown
Longitude
Unknown
Altitude
Unknown
Speed
Unknown
Apparent Right ascension
Unknown
Apparent Declination
Unknown
Sunlit
N/A
Visualization observer readout
Local Sidereal Time
12:10:19
Azimuth
Unknown
Elevation
Unknown
Doppler factor
Unknown
Orbital elements
Apogee altitude
3,695.563 km
Perigee altitude
3,684.601 km
Semi-major axis
10,068.219 km
Eccentricity
0.00054
Inclination
90.3323°
RAAN
275.0035°
Arg. of periapsis
262.7142°
True anomaly
97.37087°
Mean anomaly
97.309°
Eccentric anomaly
97.33994°
Mean motion
2.1484 °/min
Orbital period
167.57 mins
BSTAR
0
Loading maneuver chart data...
Computing Atmospheric mass density...
Loading historical data...
Loading historical data...
Loading historical data...
Loading historical data...
Loading historical data...
Loading historical data...
Loading historical data...

Documentation

Showing up to 5 results
|